Regional Weather Roundup
Issued by NWS Newport/Morehead, NC

Current Version | Previous Version | Graphics & Text | Print | Product List | Glossary Off
Versions: 1 2 3 4 5 6 7 8 9 10 11 12 13 14 15 16 17 18 19 20 21 22 23 24 25 26 27 28 29 30 31 32 33 34 35 36 37 38 39 40 41 42 43 44 45 46 47 48 49 50

000
ASUS42 KMHX 010610
RWRMHX
WEATHER ROUNDUP FOR EASTERN NORTH CAROLINA
NATIONAL WEATHER SERVICE NEWPORT/MOREHEAD CITY NC
200 AM EDT WED OCT 01 2014

NOTE: "FAIR" INDICATES FEW OR NO CLOUDS BELOW 12,000 FEET
WITH NO SIGNIFICANT WEATHER AND/OR OBSTRUCTIONS TO VISIBILITY

NCZ015>017-031-032-045>047-102-103-010700-
NORTH COAST

CITY           SKY/WX    TMP DP  RH WIND       PRES   REMARKS
EDENTON        CLEAR     61  60  97 N3        29.92R
ELIZABETH CITY CLEAR     64  63  96 N7        29.92R
KITTY HAWK     MOCLDY    69  65  87 N5        29.89R
MANTEO         PTCLDY    68  64  89 N8        29.90S

$$

NCZ045>047-081-094-103-104-010700-
CENTRAL COAST

CITY           SKY/WX    TMP DP  RH WIND       PRES   REMARKS
FRISCO         CLEAR     67  66  97 N7        29.88S
SWANQUARTER      N/A     64 N/A N/A CALM      29.85S

$$

NCZ095-097-098-100-101-010700-
SOUTHERN COAST

CITY           SKY/WX    TMP DP  RH WIND       PRES   REMARKS
BEAUFORT       CLEAR     65  63  93 N7        29.90R
CEDAR ISLAND     N/A     70 N/A N/A VRB9G16   29.91S
JACKSONVILLE   CLEAR     65  63  93 CALM      29.90S
NEWPORT        NOT AVBL
PINEY ISLAND   CLEAR     71  65  81 N7        29.89S HAZE
WILMINGTON     CLEAR     65  63  93 NE3       29.90S


$$

NCZ011>013-027>030-043-044-078>080-089-090>093-098-010700-
COASTAL PLAIN

CITY           SKY/WX    TMP DP  RH WIND       PRES   REMARKS
AHOSKIE        PTCLDY    57  56  97 CALM      29.93S FOG
CLINTON        CLEAR     62  62 100 CALM      29.92R
ELIZABETHTOWN  CLEAR     63  63 100 CALM      29.91S FOG
GOLDSBORO      CLEAR     62  62  98 CALM      29.90S
GREENVILLE     FOG       61  61 100 CALM      29.94R VSB 1/4
HAVELOCK       CLEAR     66  63  90 N5        29.91S
KENANSVILLE    CLEAR     61  59  94 CALM      29.93R
KINSTON        CLEAR     61  61  99 CALM      29.92S FOG
NEW BERN       CLEAR     64  61  88 CALM      29.92R FOG
RICHLANDS      CLEAR     63  59  88 N3        29.91S
ROANOKE RAPIDS NOT AVBL
ROCKY MOUNT    FOG       57  56  96 CALM      29.93R VSB 1/2
WASHINGTON     CLEAR     60  59  97 N3        29.92R
WHITEVILLE     CLEAR     64  62  95 CALM      29.90S

$$

AMZ130-135-150-152-154-156-158-170-250-252-270-ANZ085-086-088-633-658-670-010700-
MARINE OBSERVATIONS

STATION/POSITION TIME  TEMP    WIND        PRES    WAVE   SWELL
                       AIR SEA DIR/SP/G            HT/PER HT/PER
                 (UTC) (F)     (DEG/KT/KT) (MB)    (FT/S) (FT/S)
CHESAPEAKE LIGHT 0500   70      20/ 12/ 13 1013.4
BUOY 44014       0600   71 72   20/ 14/ 16 1011.5    3/14   2/14
DUCK             0600   71 73   20/ 12/ 14 1011.8
2E DUCK          0600                        N/A     2/ 7
OREGON INLET     0600   69 73  360/  8/ 11 1012.2
BUOY 44095       0600      73                N/A     3/ 6
20E OREGON INLET NOT AVBL
HATTERAS CG      0600   71 75   10/ 14/ 16 1012.0
DIAMOND BUOY     0600   72     360/ 16/ 19 1011.1    4/ 6   2/13
CAPE LOOKOUT     0500   70     360/ 10/ 13 1011.7
BEAUFORT LAB     0600   68 75  360/  5/  8 1011.7
30 SE NEW RIVER  0600   74 80   10/ 14/ 16 1011.2    3/ 7   2/ 7
5 SE WRIGHTSVILL 0500   68 76   20/ 10/ 12   N/A
BUOY 41002       0524   77 80  360/ 10/ 12 1008.6    3/ 7   3/ 7
BUOY 41004       0600   77 81  360/  8/ 10 1011.4    3/ 6   3/ 6

$$



USA.gov is the U.S. government's official web portal to all federal, state and local government web resources and services.